Regional Weather Roundup
Issued by NWS Grand Forks, ND

Home | Current Version | Previous Version | Graphics & Text | Print | Product List | Glossary On
Versions: 1 2 3 4 5 6 7 8 9 10 11 12 13 14 15 16 17 18 19 20 21 22 23 24 25 26 27 28 29 30 31 32 33 34 35 36 37 38 39 40 41 42 43 44 45 46 47 48 49 50
000
ASUS43 KFGF 160631
RWRFGF
PRAIRIE TO PINES  WEATHER ROUNDUP
NATIONAL WEATHER SERVICE EASTERN NORTH DAKOTA/GRAND FORKS ND
100 AM CDT WED APR 16 2014

 **SATELLITE DATA USED TO AUGMENT SKY COVER AT AUTOMATED STATIONS**
 *****  WEATHER ACROSS EASTERN NORTH DAKOTA  *****

CITY           SKY/WX    TMP DP  RH WIND       PRES   REMARKS
GRAND FORKS    CLOUDY    30  11  45 E15       29.97S WCI  19
6HR MIN TEMP:  30; 6HR MAX TEMP:  31;

GRAND FRKS AFB CLOUDY    29  13  51 E12       30.00S WCI  19
GRAND FRKS NWS   N/A     30 N/A N/A E14         N/A  WCI  20
DEVILS LAKE    CLOUDY    25  16  68 E14G23    29.94S WCI  13
6HR MIN TEMP:  25; 6HR MAX TEMP:  30;

FARGO          CLOUDY    32  18  56 E14       29.97R WCI  22
WAHPETON ARPT  CLOUDY    32  18  55 E23G33    29.92F WCI  19
$$

 ***** WEATHER ACROSS CENTRAL AND WESTERN NORTH DAKOTA  *****

CITY           SKY/WX    TMP DP  RH WIND       PRES   REMARKS
BISMARCK       MOCLDY    29  18  63 E18G29    29.77S WCI  16
6HR MIN TEMP:  29; 6HR MAX TEMP:  45;

MINOT          LGT SNOW  25  21  85 E21G26    29.87R FOG     WCI  11
6HR MIN TEMP:  25; 6HR MAX TEMP:  34; 6HR PCP:  0.01;

JAMESTOWN      CLOUDY    27  23  85 E21G31    29.86S WCI  13
6HR MIN TEMP:  27; 6HR MAX TEMP:  30;

MINOT AFB      LGT SNOW  25  24  96 E22G31    29.87R FOG     WCI  10
GARRISON         N/A     28  21  75 E18G28    29.80R WCI  15
WILLISTON        N/A    N/A N/A N/A MISG      29.78R
DICKINSON      CLOUDY    29  18  63 E18       29.68R WCI  16
6HR MIN TEMP:  29; 6HR MAX TEMP:  49;

HETTINGER      CLOUDY    35  22  58 E7        29.64S
6HR MIN TEMP:  35; 6HR MAX TEMP:  56;

$$

 *****  OTHER AIRPORT OBSERVATIONS IN OUR AREA  *****

CITY           SKY/WX    TMP DP  RH WIND       PRES   REMARKS
WALHALLA       FAIR      27  16  63 E10       30.05S WCI  17
GRAFTON AIRPOR CLOUDY    27  16  63 E12       30.04R WCI  16
VALLEY CITY AR NOT AVBL
CANDO          LGT SNOW  25  21  86 E17       29.97R WCI  11
CAVALIER APRT  FAIR      27  14  59 E9        30.05S WCI  17
GWINNER        PTCLDY    32  16  51 E21G28    29.86F WCI  20
ROLLA          MIX PCPN  23  19  86 E15G23    29.97R WCI  10
 ***** THE ABOVE OBSERVATIONS ARE NON NWS ARE NOT QUALITY
       CONTROLLED AND MAY MIS-REPORT RAIN FOR SNOW...
$$

  *****  WEATHER ACROSS NORTHERN MINNESOTA  *****

CITY           SKY/WX    TMP DP  RH WIND       PRES   REMARKS
FLAG ISLAND    FAIR      12   9  85 CALM      30.10S
WARROAD        FAIR      18   9  68 E6        30.09S WCI   9
ROSEAU         FAIR      23  12  63 E8        30.08R WCI  14
HALLOCK        CLOUDY    27  12  54 E10       30.06R WCI  17
THF RVR FALLS  CLOUDY    27   9  46 E13       30.03S WCI  16
6HR MIN TEMP:  27; 6HR MAX TEMP:  28;

BAUDETTE       FAIR      20   8  60 E7        30.09S WCI  11
6HR MIN TEMP:  19; 6HR MAX TEMP:  26;

WASKISH        FAIR      21   9  58 E7        30.07S WCI  13
CROOKSTON      CLOUDY    28  10  47 E9G18     30.02S WCI  20
$$
  *****  WEATHER ACROSS CENTRAL AND WEST MINNESOTA  *****

CITY           SKY/WX    TMP DP  RH WIND       PRES   REMARKS
FOSSTON        CLOUDY    27   9  46 E9        30.01S WCI  17
BEMIDJI        CLOUDY    26   4  38 E7        30.03R WCI  18
PARK RAPIDS    CLOUDY    28   7  41 E8        30.00S WCI  20
6HR MIN TEMP:  28; 6HR MAX TEMP:  32;

ELBOW LAKE     CLOUDY    29  22  74 E22G30    29.93F WCI  16
6HR MIN TEMP:  30; 6HR MAX TEMP:  32;

WADENA         CLOUDY    28  10  47 SE14      29.99S WCI  17
DETROIT LAKES  FAIR      32  10  40 SE15      29.98S WCI  22
MOORHEAD       CLOUDY    32  19  59 SE16G22   29.98S WCI  21
FERGUS FALLS   LGT SNOW  28  19  69 SE18G26   29.93F WCI  16
MORRIS MN      FAIR      34  12  40 E25       29.89F WCI  21
STAPLES        CLOUDY    28   5  37 E5        30.02R WCI  23
$$
  *****  WEATHER ELSEWHERE ACROSS MINNESOTA  *****

CITY           SKY/WX    TMP DP  RH WIND       PRES   REMARKS
DULUTH         FAIR      21   9  59 SE3       30.08S
6HR MIN TEMP:  21; 6HR MAX TEMP:  30;

INTRNTL FALLS  FAIR      15   8  73 CALM      30.10S
6HR MIN TEMP:  15; 6HR MAX TEMP:  28;

ELY            FAIR       9   7  92 CALM      30.10S
CLOQUET        FAIR      25   3  39 CALM      30.08S
WHEATON        MOCLDY    36  18  48 E21G28    29.91S
BRAINERD       CLOUDY    32   2  27 VRB5      30.04S
6HR MIN TEMP:  31; 6HR MAX TEMP:  36;

HIBBING        FAIR      19  12  74 CALM      30.08R
6HR MIN TEMP:  18; 6HR MAX TEMP:  31;

ALEXANDRIA     LGT SNOW  27  21  80 E17G23    29.96F WCI  14
6HR MIN TEMP:  28; 6HR MAX TEMP:  33; 6HR PCP: TRACE;

SAINT CLOUD    CLOUDY    33  12  41 E10       30.03S WCI  25
6HR MIN TEMP:  33; 6HR MAX TEMP:  35;

MINNEAPOLIS    CLOUDY    34  15  46 SE13      30.05F WCI  25
6HR MIN TEMP:  33; 6HR MAX TEMP:  35;

$$

  *****  WEATHER ACROSS SOUTH DAKOTA  *****

CITY           SKY/WX    TMP DP  RH WIND       PRES   REMARKS
SIOUX FALLS    CLOUDY    40  26  57 SE16G24   29.72F
6HR MIN TEMP:  40; 6HR MAX TEMP:  47;

BROOKINGS      NOT AVBL
WATERTOWN      MOCLDY    32  21  64 E16G30    29.75S WCI  21
6HR MIN TEMP:  32; 6HR MAX TEMP:  41;

HURON          CLOUDY    41  26  55 SE17G26   29.63F
6HR MIN TEMP:  41; 6HR MAX TEMP:  51;

SISSETON         N/A     32  15  49 SE21      29.86F WCI  20
ABERDEEN       PTCLDY    32  19  58 E18       29.76F WCI  20
6HR MIN TEMP:  32; 6HR MAX TEMP:  44;

MITCHELL       CLOUDY    42  28  57 SE16      29.61F
PIERRE         CLOUDY    43  29  57 NE15      29.53R
6HR MIN TEMP:  43; 6HR MAX TEMP:  58;

MOBRIDGE       MOCLDY    33  18  53 E26G40    29.62R WCI  20
RAPID CITY     LGT RAIN  43  39  86 NW21      29.60R
6HR MIN TEMP:  43; 6HR MAX TEMP:  61; 6HR PCP: TRACE;

$$

  *****  SOME WEATHER IN NEARBY STATES *****

CITY           SKY/WX    TMP DP  RH WIND       PRES   REMARKS
GLASGOW MT     CLOUDY    35  21  56 NE14      29.74R
6HR MIN TEMP:  35; 6HR MAX TEMP:  57;

GREAT FALLS MT LGT RAIN  37  36  93 W6        29.87R
6HR MIN TEMP:  37; 6HR MAX TEMP:  43; 6HR PCP: TRACE;

CHEYENNE WY    MOCLDY    42  31  64 NW20G31   29.71R
6HR MIN TEMP:  42; 6HR MAX TEMP:  53;

SCOTTSBLUFF NE CLOUDY    56  30  37 W21       29.62R
6HR MIN TEMP:  56; 6HR MAX TEMP:  64;

OMAHA NE       CLOUDY    49  29  46 S24G35    29.82F
6HR MIN TEMP:  46; 6HR MAX TEMP:  53;

DES MOINES IA  FAIR      40  25  55 SE12      29.98F
6HR MIN TEMP:  40; 6HR MAX TEMP:  47;

DAVENPORT IA   FAIR      29  18  63 SE8       30.16S WCI  21
6HR MIN TEMP:  28; 6HR MAX TEMP:  39;

CHICAGO IL     FAIR      29  19  66 S6        30.21R WCI  23
6HR MIN TEMP:  29; 6HR MAX TEMP:  36;

EAU CLAIRE WI  CLOUDY    30  13  49 SE5       30.11S
6HR MIN TEMP:  29; 6HR MAX TEMP:  35;

LA CROSSE WI   CLOUDY    32  18  56 E6        30.13S
6HR MIN TEMP:  32; 6HR MAX TEMP:  37;

$$

  *****  SOME NATIONAL WEATHER *****

CITY           SKY/WX    TMP DP  RH WIND       PRES   REMARKS
LA GUARDIA NY  CLOUDY    36  28  75 NW18      29.94R
6HR MIN TEMP:  34; 6HR MAX TEMP:  45; 6HR PCP:  0.54;

RALEIGH NC     FAIR      37  27  67 VRB3      30.08R
6HR MIN TEMP:  37; 6HR MAX TEMP:  45; 6HR PCP:  0.03;

ATLANTA GA     FAIR      37  26  64 N8        30.12R
6HR MIN TEMP:  37; 6HR MAX TEMP:  44;

NEW ORLEANS LA FAIR      51  35  54 NE22G29   30.17S
6HR MIN TEMP:  50; 6HR MAX TEMP:  58;

OKLAHOMA CITY  MOCLDY    49  24  37 S14       30.01F
6HR MIN TEMP:  48; 6HR MAX TEMP:  62;

ALBUQUERQUE NM PTCLDY    54   8  16 S15       29.92S
6HR MIN TEMP:  54; 6HR MAX TEMP:  68;

SALT LAKE CITY CLOUDY    53  20  27 NW13      29.94R
6HR MIN TEMP:  51; 6HR MAX TEMP:  67;

LOS ANGELES CA MOCLDY    58  54  86 S5        29.88S
6HR MIN TEMP:  57; 6HR MAX TEMP:  61;

BOISE ID       PTCLDY    46  15  28 W5        30.00R
6HR MIN TEMP:  45; 6HR MAX TEMP:  59;




USA.gov is the U.S. government's official web portal to all federal, state and local government web resources and services.